TimeMST,TemperatureF,Dew PointF,Humidity,Sea Level PressureIn,VisibilityMPH,Wind Direction,Wind SpeedMPH,Gust SpeedMPH,PrecipitationIn,Events,Conditions,WindDirDegrees,DateUTC
12:19 AM,-7.6,-9.4,92,30.44,-9999.0,Calm,Calm,-,N/A,,Overcast,0,2013-01-22 07:19:00
12:51 AM,-9.0,-13.0,83,30.74,-9999.0,Calm,Calm,-,N/A,,Overcast,0,2013-01-22 07:51:00
1:51 AM,-9.9,-13.0,86,30.75,-9999.0,Calm,Calm,-,N/A,,Overcast,0,2013-01-22 08:51:00
2:51 AM,-9.0,-11.0,91,30.74,-9999.0,Calm,Calm,-,N/A,,Overcast,0,2013-01-22 09:51:00
3:51 AM,-11.0,-14.1,86,30.73,-9999.0,Calm,Calm,-,N/A,,Overcast,0,2013-01-22 10:51:00
4:51 AM,-9.9,-14.1,82,30.74,-9999.0,Calm,Calm,-,N/A,,Overcast,0,2013-01-22 11:51:00
5:51 AM,-9.9,-14.1,82,30.74,-9999.0,Calm,Calm,-,N/A,,Overcast,0,2013-01-22 12:51:00
6:51 AM,-9.0,-13.0,83,30.74,-9999.0,Calm,Calm,-,N/A,,Overcast,0,2013-01-22 13:51:00
7:51 AM,-8.0,-11.0,86,30.76,-9999.0,Calm,Calm,-,N/A,,Overcast,0,2013-01-22 14:51:00
8:51 AM,-7.1,-13.0,75,30.79,-9999.0,Calm,Calm,-,N/A,,Overcast,0,2013-01-22 15:51:00
9:35 AM,-5.8,-11.2,77,30.46,-9999.0,Calm,Calm,-,N/A,,Overcast,0,2013-01-22 16:35:00
9:45 AM,-5.8,-7.6,92,30.46,-9999.0,Calm,Calm,-,N/A,,Overcast,0,2013-01-22 16:45:00
9:51 AM,-4.0,-7.1,87,30.77,-9999.0,Calm,Calm,-,N/A,,Overcast,0,2013-01-22 16:51:00
10:18 AM,-0.4,-5.8,78,30.45,-9999.0,Calm,Calm,-,N/A,,Scattered Clouds,0,2013-01-22 17:18:00
10:51 AM,-0.9,-6.0,79,30.75,-9999.0,Calm,Calm,-,N/A,,Clear,0,2013-01-22 17:51:00
11:51 AM,1.0,-4.0,79,30.75,-9999.0,Calm,Calm,-,N/A,,Clear,0,2013-01-22 18:51:00
12:17 PM,1.4,-0.4,92,30.44,-9999.0,Calm,Calm,-,N/A,,Partly Cloudy,0,2013-01-22 19:17:00
1:07 PM,5.0,-2.2,72,30.43,-9999.0,Calm,Calm,-,N/A,,Partly Cloudy,0,2013-01-22 20:07:00
1:20 PM,6.8,-0.4,72,30.42,-9999.0,Calm,Calm,-,N/A,,Mostly Cloudy,0,2013-01-22 20:20:00
1:26 PM,6.8,-0.4,72,30.42,-9999.0,Calm,Calm,-,N/A,,Scattered Clouds,0,2013-01-22 20:26:00
1:51 PM,5.0,-0.9,76,30.70,-9999.0,Calm,Calm,-,N/A,,Clear,0,2013-01-22 20:51:00
2:03 PM,5.0,-0.4,78,30.39,-9999.0,Calm,Calm,-,0.00,Snow,Light Snow,0,2013-01-22 21:03:00
2:51 PM,7.0,-0.0,73,30.68,-9999.0,North,4.6,-,0.00,,Clear,360,2013-01-22 21:51:00
3:51 PM,6.1,-0.0,76,30.68,-9999.0,Calm,Calm,-,N/A,,Clear,0,2013-01-22 22:51:00
4:51 PM,5.0,-0.9,76,30.66,-9999.0,Calm,Calm,-,N/A,,Clear,0,2013-01-22 23:51:00
5:51 PM,3.0,-2.0,80,30.67,-9999.0,Calm,Calm,-,N/A,,Clear,0,2013-01-23 00:51:00
6:51 PM,-0.0,-2.9,88,30.67,-9999.0,Calm,Calm,-,N/A,,Clear,0,2013-01-23 01:51:00
7:51 PM,-0.9,-4.0,87,30.66,-9999.0,Calm,Calm,-,N/A,,Clear,0,2013-01-23 02:51:00
8:51 PM,-5.1,-7.1,91,30.68,-9999.0,Calm,Calm,-,N/A,,Partly Cloudy,0,2013-01-23 03:51:00
9:51 PM,-2.0,-6.0,83,30.67,-9999.0,Calm,Calm,-,N/A,,Clear,0,2013-01-23 04:51:00
9:57 PM,-4.0,-7.6,85,30.38,-9999.0,Calm,Calm,-,N/A,,Partly Cloudy,0,2013-01-23 04:57:00
10:09 PM,-4.0,-5.8,92,30.37,-9999.0,Calm,Calm,-,N/A,,Mostly Cloudy,0,2013-01-23 05:09:00
10:51 PM,-7.1,-11.0,83,30.69,-9999.0,Calm,Calm,-,N/A,,Mostly Cloudy,0,2013-01-23 05:51:00
10:57 PM,-5.8,-9.4,84,30.39,-9999.0,Calm,Calm,-,N/A,,Mostly Cloudy,0,2013-01-23 05:57:00
11:51 PM,-5.1,-9.0,83,30.67,-9999.0,Calm,Calm,-,N/A,,Overcast,0,2013-01-23 06:51:00